Voltar ao catálogo

COSMOS 1275 DEB

AtivoPO
NORAD 39957·DEBRIS·🇷🇺 Russia

Lançado Jun 4, 1981 de Plesetsk Cosmodrome

Loading…

Próximas Passagens (próximas 24 horas)

TLE

AtualizadoSource: Space-Track

Época: Sep 12, 2026, 10:40 UTC

1 39957U 81053NT  26255.44484003  .00000076  00000-0  63741-4 0  9995
2 39957  82.9285 150.6011 0038786  68.2219  56.8420 13.74690946615638

Acompanhe COSMOS 1275 DEB em tempo real com AllMySat

Download on the App Store